DW5963 Weather Reports


time (UTC)temp
C
wind
direction
speed
KPH
gust
KPH
rain 1hr
cm
rain 24hr
cm
rain mn
cm
humidity
%
barometer
mb
20260503232054 24 360 24.1 0.0 0.00 0.00 0.00 24 1000.9
20260503231554 24 360 24.1 0.0 0.00 0.00 0.00 24 1001.2
20260503231056 24 360 24.1 0.0 0.00 0.00 0.00 24 1001.2
20260503230555 24 360 25.7 0.0 0.00 0.00 0.00 24 1001.4
20260503230052 24 360 25.7 0.0 0.00 0.00 0.00 22 1001.5
20260503225551 24 360 27.4 0.0 0.00 0.00 0.00 22 1001.6
20260503225049 24 360 30.6 0.0 0.00 0.00 0.00 22 1001.8
20260503224557 24 360 29.0 0.0 0.00 0.00 0.00 22 1001.9
20260503224048 24 360 27.4 0.0 0.00 0.00 0.00 21 1002.0
20260503223547 24 360 27.4 0.0 0.00 0.00 0.00 22 1002.1
20260503223047 24 360 25.7 0.0 0.00 0.00 0.00 22 1002.2
20260503222047 24 360 29.0 0.0 0.00 0.00 0.00 21 1002.5
20260503221557 24 360 32.2 0.0 0.00 0.00 0.00 20 1002.5
20260503221049 24 360 30.6 0.0 0.00 0.00 0.00 20 1002.5
20260503220544 24 360 29.0 0.0 0.00 0.00 0.00 24 1002.8
20260503220043 24 360 27.4 0.0 0.00 0.00 0.00 24 1002.7
20260503215541 23 360 27.4 0.0 0.00 0.00 0.00 25 1002.7
20260503215041 23 360 30.6 0.0 0.00 0.00 0.00 24 1003.0
20260503214542 23 360 29.0 0.0 0.00 0.00 0.00 25 1003.1
20260503214039 23 360 27.4 0.0 0.00 0.00 0.00 25 1003.4
20260503213539 23 360 27.4 0.0 0.00 0.00 0.00 25 1003.3
20260503213044 24 360 29.0 0.0 0.00 0.00 0.00 25 1003.6
20260503212039 24 360 29.0 0.0 0.00 0.00 0.00 24 1003.8
20260503211537 23 360 30.6 0.0 0.00 0.00 0.00 25 1004.0
20260503211036 24 360 30.6 0.0 0.00 0.00 0.00 24 1004.0
20260503210536 23 360 27.4 0.0 0.00 0.00 0.00 23 1004.0
20260503210036 23 360 27.4 0.0 0.00 0.00 0.00 22 1004.2
20260503205536 23 360 25.7 0.0 0.00 0.00 0.00 24 1004.3
20260503205035 23 360 25.7 0.0 0.00 0.00 0.00 25 1004.5
20260503204533 23 360 27.4 0.0 0.00 0.00 0.00 25 1004.7
20260503204035 23 360 27.4 0.0 0.00 0.00 0.00 25 1004.5
20260503203534 23 360 27.4 0.0 0.00 0.00 0.00 25 1004.7
20260503203037 23 360 25.7 0.0 0.00 0.00 0.00 25 1004.7
20260503202033 23 360 29.0 0.0 0.00 0.00 0.00 24 1004.9
20260503201532 23 360 27.4 0.0 0.00 0.00 0.00 25 1005.0
20260503201032 23 360 25.7 0.0 0.00 0.00 0.00 27 1004.9
20260503200533 24 360 25.7 0.0 0.00 0.00 0.00 26 1005.1
20260503200030 23 360 27.4 0.0 0.00 0.00 0.00 26 1005.4
20260503195530 23 360 25.7 0.0 0.00 0.00 0.00 25 1005.3
20260503195028 23 360 27.4 0.0 0.00 0.00 0.00 27 1005.6
20260503194527 23 360 25.7 0.0 0.00 0.00 0.00 25 1005.8
20260503194027 23 360 24.1 0.0 0.00 0.00 0.00 28 1005.9
20260503193525 23 360 24.1 0.0 0.00 0.00 0.00 27 1006.0
20260503193040 23 360 27.4 0.0 0.00 0.00 0.00 28 1006.1
20260503192030 22 360 24.1 0.0 0.00 0.00 0.00 27 1006.4
20260503191557 22 360 25.7 0.0 0.00 0.00 0.00 29 1006.4
20260503191029 23 360 29.0 0.0 0.00 0.00 0.00 28 1006.6
20260503190527 23 360 24.1 0.0 0.00 0.00 0.00 28 1006.7
20260503190027 23 360 24.1 0.0 0.00 0.00 0.00 28 1006.7
20260503185525 23 360 25.7 0.0 0.00 0.00 0.00 28 1006.9
20260503185021 22 360 27.4 0.0 0.00 0.00 0.00 29 1007.0
20260503184521 23 360 27.4 0.0 0.00 0.00 0.00 28 1007.1
20260503184020 22 360 25.7 0.0 0.00 0.00 0.00 29 1007.3
20260503183522 22 360 29.0 0.0 0.00 0.00 0.00 28 1007.6
20260503183018 22 360 29.0 0.0 0.00 0.00 0.00 28 1007.7
20260503182016 22 360 25.7 0.0 0.00 0.00 0.00 28 1007.9
20260503181516 22 360 29.0 0.0 0.00 0.00 0.00 30 1008.1
20260503181016 22 360 29.0 0.0 0.00 0.00 0.00 27 1008.2
20260503180515 22 360 27.4 0.0 0.00 0.00 0.00 29 1008.3
20260503180014 22 360 25.7 0.0 0.00 0.00 0.00 28 1008.3
20260503175513 22 360 25.7 0.0 0.00 0.00 0.00 29 1008.3
20260503175016 22 360 29.0 0.0 0.00 0.00 0.00 29 1008.5
20260503174512 22 360 27.4 0.0 0.00 0.00 0.00 29 1008.6
20260503174016 22 360 24.1 0.0 0.00 0.00 0.00 31 1008.6
20260503173511 21 360 24.1 0.0 0.00 0.00 0.00 30 1008.8
20260503173010 21 360 25.7 0.0 0.00 0.00 0.00 30 1008.8
20260503172013 21 360 25.7 0.0 0.00 0.00 0.00 31 1009.0
20260503171509 21 360 27.4 0.0 0.00 0.00 0.00 30 1009.0
20260503171008 21 360 24.1 0.0 0.00 0.00 0.00 28 1009.2
20260503170507 21 360 20.9 0.0 0.00 0.00 0.00 31 1009.3
20260503160108 20 360 20.9 0.0 0.00 0.00 0.00 34 1010.5
20260503150551 18 360 20.9 0.0 0.00 0.00 0.00 34 1011.4
20260503131022 6 360 1.6 0.0 0.00 0.00 0.00 65 1012.8
20260503130521 6 360 1.6 0.0 0.00 0.00 0.00 67 1012.8
20260503110504 -1 360 0.0 0.0 0.00 0.00 0.00 81 1013.5
20260503081554 -1 360 1.6 0.0 0.00 0.00 0.00 72 1014.1
20260503081052 -1 360 1.6 0.0 0.00 0.00 0.00 72 1014.1
20260503080553 -1 360 1.6 0.0 0.00 0.00 0.00 73 1014.1
20260503072551 -1 360 1.6 0.0 0.00 0.00 0.00 73 1014.3
20260503072051 -1 360 1.6 0.0 0.00 0.00 0.00 73 1014.2
20260503071605 -1 360 3.2 0.0 0.00 0.00 0.00 71 1014.3
20260503071048 -1 360 3.2 0.0 0.00 0.00 0.00 71 1014.3
20260503070548 0 360 3.2 0.0 0.00 0.00 0.00 71 1014.4
20260503055039 1 360 1.6 0.0 0.00 0.00 0.00 67 1014.2
20260503054558 0 360 1.6 0.0 0.00 0.00 0.00 68 1014.1
20260503054040 0 360 3.2 0.0 0.00 0.00 0.00 66 1014.2
20260503053538 1 360 1.6 0.0 0.00 0.00 0.00 64 1014.1
20260503053038 1 360 1.6 0.0 0.00 0.00 0.00 63 1014.1
20260503052539 2 360 1.6 0.0 0.00 0.00 0.00 65 1014.1
20260503052038 2 360 1.6 0.0 0.00 0.00 0.00 65 1014.2
20260503051538 1 360 1.6 0.0 0.00 0.00 0.00 66 1014.2
20260503051037 1 360 1.6 0.0 0.00 0.00 0.00 62 1014.2
20260503050535 1 360 1.6 0.0 0.00 0.00 0.00 60 1014.2
20260503050035 2 360 3.2 0.0 0.00 0.00 0.00 61 1014.2
20260503045536 2 360 3.2 0.0 0.00 0.00 0.00 63 1014.2
20260503045033 2 360 1.6 0.0 0.00 0.00 0.00 64 1014.2
20260503044539 2 360 1.6 0.0 0.00 0.00 0.00 62 1014.3
20260503044031 2 360 1.6 0.0 0.00 0.00 0.00 61 1014.2
20260503043531 3 360 1.6 0.0 0.00 0.00 0.00 59 1014.3
20260503043041 3 360 1.6 0.0 0.00 0.00 0.00 59 1014.2
20260503042531 4 360 3.2 0.0 0.00 0.00 0.00 58 1014.2
20260503042032 4 360 3.2 0.0 0.00 0.00 0.00 58 1014.2
20260503041532 4 360 3.2 0.0 0.00 0.00 0.00 58 1014.2
20260503041031 4 360 1.6 0.0 0.00 0.00 0.00 57 1014.3
20260503040533 4 360 0.0 0.0 0.00 0.00 0.00 57 1014.3
20260503040035 4 360 1.6 0.0 0.00 0.00 0.00 56 1014.3
20260503035533 5 360 1.6 0.0 0.00 0.00 0.00 56 1014.2
20260503035031 5 360 1.6 0.0 0.00 0.00 0.00 56 1014.3
20260503034531 4 360 3.2 0.0 0.00 0.00 0.00 56 1014.2
20260503034031 4 360 1.6 0.0 0.00 0.00 0.00 55 1014.2
20260503033533 5 360 3.2 0.0 0.00 0.00 0.00 55 1014.3
20260503033031 5 360 3.2 0.0 0.00 0.00 0.00 54 1014.3
20260503032531 5 360 1.6 0.0 0.00 0.00 0.00 53 1014.1
20260503032031 5 360 1.6 0.0 0.00 0.00 0.00 53 1014.1
20260503031531 5 360 0.0 0.0 0.00 0.00 0.00 52 1014.1
20260503031029 6 360 0.0 0.0 0.00 0.00 0.00 51 1014.1
20260503030531 6 360 0.0 0.0 0.00 0.00 0.00 50 1014.1
20260503030035 6 360 1.6 0.0 0.00 0.00 0.00 49 1014.1
20260503025530 6 360 1.6 0.0 0.00 0.00 0.00 47 1014.1
20260503025030 7 360 1.6 0.0 0.00 0.00 0.00 46 1014.0
20260503024533 7 360 3.2 0.0 0.00 0.00 0.00 45 1013.9
20260503024029 8 360 3.2 0.0 0.00 0.00 0.00 44 1013.9
20260503023531 9 360 4.8 0.0 0.00 0.00 0.00 42 1013.9
20260503023030 10 360 6.4 0.0 0.00 0.00 0.00 42 1013.8
20260503022529 10 360 6.4 0.0 0.00 0.00 0.00 39 1013.8
20260503022030 10 360 6.4 0.0 0.00 0.00 0.00 39 1013.8
20260503021530 11 360 6.4 0.0 0.00 0.00 0.00 39 1013.8
20260503021030 12 360 6.4 0.0 0.00 0.00 0.00 37 1013.8
20260503020531 12 360 8.0 0.0 0.00 0.00 0.00 36 1013.8
20260503020030 13 360 8.0 0.0 0.00 0.00 0.00 35 1013.8
20260503015532 13 360 9.7 0.0 0.00 0.00 0.00 34 1013.7
20260503015029 15 360 11.3 0.0 0.00 0.00 0.00 33 1013.7
20260503014530 15 360 11.3 0.0 0.00 0.00 0.00 33 1013.7
20260503014029 15 360 11.3 0.0 0.00 0.00 0.00 32 1013.7
20260503013529 16 360 12.9 0.0 0.00 0.00 0.00 32 1013.7
20260503013037 16 360 12.9 0.0 0.00 0.00 0.00 31 1013.6
20260503012530 16 360 14.5 0.0 0.00 0.00 0.00 31 1013.6
20260503012029 16 360 16.1 0.0 0.00 0.00 0.00 30 1013.6
20260503011528 16 360 17.7 0.0 0.00 0.00 0.00 30 1013.6
20260503011028 17 360 19.3 0.0 0.00 0.00 0.00 29 1013.6
20260503010528 17 360 19.3 0.0 0.00 0.00 0.00 29 1013.6
20260503010028 17 360 20.9 0.0 0.00 0.00 0.00 28 1013.6
20260503005528 17 360 20.9 0.0 0.00 0.00 0.00 28 1013.5
20260503005030 17 360 20.9 0.0 0.00 0.00 0.00 28 1013.6
20260503004534 17 360 19.3 0.0 0.00 0.00 0.00 28 1013.6
20260503004026 17 360 20.9 0.0 0.00 0.00 0.00 28 1013.6
20260503003527 17 360 22.5 0.0 0.00 0.00 0.00 28 1013.5
20260503003037 17 360 20.9 0.0 0.00 0.00 0.00 28 1013.5
20260503002527 18 360 20.9 0.0 0.00 0.00 0.00 27 1013.4
20260503002027 18 360 20.9 0.0 0.00 0.00 0.00 27 1013.4
20260503001533 18 360 24.1 0.0 0.00 0.00 0.00 27 1013.4
20260503001027 18 360 24.1 0.0 0.00 0.00 0.00 28 1013.4
20260503000526 18 360 24.1 0.0 0.00 0.00 0.00 27 1013.4
20260503000027 18 360 24.1 0.0 0.00 0.00 0.00 27 1013.4
20260502235526 18 360 24.1 0.0 0.00 0.00 0.00 27 1013.4
20260502235026 18 360 25.7 0.0 0.00 0.00 0.00 27 1013.3
20260502234537 18 360 25.7 0.0 0.00 0.00 0.00 28 1013.3
20260502234027 19 360 24.1 0.0 0.00 0.00 0.00 28 1013.3
20260502233525 18 360 24.1 0.0 0.00 0.00 0.00 28 1013.2
20260502233037 19 360 24.1 0.0 0.00 0.00 0.00 28 1013.2
20260502232525 19 360 24.1 0.0 0.00 0.00 0.00 28 1013.2